This is the latest recevied weather packets stored in our database for station/object KC5DAQ-29. If no packets are shown the sender has not sent any weather packets the latest 10 day(s).
| Time | Temp. | Humidity | Pressure | Rain* | Wind** | Luminosity | Snow |
|---|---|---|---|---|---|---|---|
| 1777679692 | 15° C | 100% | 1008.7 hPa | 1.78 mm | - | 9 W/m² | - |
| 1777679631 | 15° C | 100% | 1008.9 hPa | 1.78 mm | - | 9 W/m² | - |
| 1777679572 | 15° C | 100% | 1008.9 hPa | 1.27 mm | - | 9 W/m² | - |
| 1777679512 | 15° C | 100% | 1009.1 hPa | 1.52 mm | - | 18 W/m² | - |
| 1777679436 | 15° C | 100% | 1009.2 hPa | 1.52 mm | - | 18 W/m² | - |
| 1777679372 | 15.56° C | 100% | 1009.2 hPa | 1.52 mm | - | 18 W/m² | - |
| 1777679312 | 15.56° C | 100% | 1009.2 hPa | 1.52 mm | - | 18 W/m² | - |
| 1777679253 | 15.56° C | 100% | 1009.2 hPa | 1.52 mm | - | 18 W/m² | - |
| 1777679187 | 15.56° C | 100% | 1009.2 hPa | 1.27 mm | - | 18 W/m² | - |
| 1777679104 | 15.56° C | 100% | 1009.3 hPa | 1.27 mm | - | 18 W/m² | - |
| 1777679043 | 15.56° C | 100% | 1009.2 hPa | 1.27 mm | - | 18 W/m² | - |
| 1777678984 | 15.56° C | 100% | 1009.3 hPa | 1.02 mm | - | 19 W/m² | - |
| 1777678923 | 15.56° C | 100% | 1009.3 hPa | 1.02 mm | - | 18 W/m² | - |
| 1777678862 | 15.56° C | 100% | 1009.3 hPa | 1.02 mm | - | 18 W/m² | - |
| 1777678803 | 15° C | 100% | 1009.5 hPa | 1.02 mm | - | 18 W/m² | - |
| 1777678744 | 15° C | 100% | 1009.6 hPa | 1.02 mm | - | 16 W/m² | - |
| 1777678682 | 15° C | 100% | 1009.7 hPa | 1.02 mm | - | 16 W/m² | - |
| 1777678622 | 15° C | 100% | 1010 hPa | 0.76 mm | - | 16 W/m² | - |
| 1777678564 | 15° C | 100% | 1010.1 hPa | 0.76 mm | - | 16 W/m² | - |
| 1777678503 | 15° C | 100% | 1010.1 hPa | 0.76 mm | - | 16 W/m² | - |
| 1777678442 | 15° C | 100% | 1010.1 hPa | 0.76 mm | - | 16 W/m² | - |
| 1777678383 | 15° C | 100% | 1009.9 hPa | 0.76 mm | - | 16 W/m² | - |
| 1777678323 | 15° C | 100% | 1009.8 hPa | 0.76 mm | - | 12 W/m² | - |
| 1777678262 | 15° C | 100% | 1009.7 hPa | 0.76 mm | - | 12 W/m² | - |
| 1777678204 | 15° C | 100% | 1009.7 hPa | 0.51 mm | - | 12 W/m² | - |
* Rain latest hour (hover to see other rain measurements)
** Current wind speed in m/s (hover to see current wind gust speed)